Time,TemperatureF,DewpointF,PressureIn,WindDirection,WindDirectionDegrees,WindSpeedMPH,WindSpeedGustMPH,Humidity,HourlyPrecipIn,Conditions,Clouds,dailyrainin,SoftwareType,DateUTC
2013-09-10 00:12:00,52.0,51.0,29.72,SE,146,2.0,13.0,95,0.03,,,1.18,,2013-09-10 06:12:00,
2013-09-10 00:22:00,52.0,51.0,29.72,East,79,1.0,8.0,95,0.01,,,1.18,,2013-09-10 06:22:00,
2013-09-10 00:42:00,52.0,51.0,29.72,SE,124,1.0,5.0,96,0.01,,,1.18,,2013-09-10 06:42:00,
2013-09-10 00:52:00,52.0,51.0,29.71,SE,134,0.0,1.0,96,0.00,,,1.18,,2013-09-10 06:52:00,
2013-09-10 01:12:00,51.0,50.0,29.71,ENE,74,1.0,2.0,96,0.00,,,1.18,,2013-09-10 07:12:00,
2013-09-10 01:22:00,51.0,50.0,29.72,ESE,110,1.0,2.0,96,0.00,,,1.18,,2013-09-10 07:22:00,
2013-09-10 01:42:00,52.0,51.0,29.73,SE,131,1.0,2.0,96,0.00,,,1.18,,2013-09-10 07:42:00,
2013-09-10 01:52:00,52.0,51.0,29.74,SE,133,0.0,1.0,96,0.00,,,1.18,,2013-09-10 07:52:00,
2013-09-10 02:12:00,52.0,51.0,29.73,NW,314,0.0,2.0,96,0.02,,,1.20,,2013-09-10 08:12:00,
2013-09-10 02:22:00,52.0,51.0,29.74,ESE,105,0.0,1.0,96,0.02,,,1.20,,2013-09-10 08:22:00,
2013-09-10 02:52:00,52.0,51.0,29.75,ESE,105,0.0,0.0,97,0.02,,,1.20,,2013-09-10 08:52:00,
2013-09-10 03:02:00,52.0,51.0,29.75,ESE,105,0.0,0.0,97,0.02,,,1.20,,2013-09-10 09:02:00,
2013-09-10 03:11:00,52.0,51.0,29.75,ESE,105,0.0,0.0,97,0.02,,,1.20,,2013-09-10 09:11:00,
2013-09-10 03:22:00,51.0,50.0,29.76,East,97,0.0,4.0,96,0.00,,,1.20,,2013-09-10 09:22:00,
2013-09-10 03:43:00,51.0,50.0,29.75,East,97,0.0,2.0,96,0.02,,,1.22,,2013-09-10 09:43:00,
2013-09-10 03:54:00,51.0,50.0,29.75,SE,127,0.0,0.0,97,0.03,,,1.23,,2013-09-10 09:54:00,
2013-09-10 04:13:00,51.0,50.0,29.75,ESE,115,0.0,1.0,97,0.03,,,1.23,,2013-09-10 10:13:00,
2013-09-10 04:23:00,51.0,50.0,29.75,SE,126,0.0,0.0,97,0.03,,,1.23,,2013-09-10 10:23:00,
2013-09-10 04:42:00,51.0,50.0,29.76,SE,124,0.0,0.0,97,0.01,,,1.23,,2013-09-10 10:42:00,
2013-09-10 04:53:00,51.0,50.0,29.76,SE,125,0.0,0.0,97,0.00,,,1.23,,2013-09-10 10:53:00,
2013-09-10 05:12:00,51.0,50.0,29.76,NW,309,0.0,0.0,97,0.00,,,1.23,,2013-09-10 11:12:00,
2013-09-10 05:22:00,51.0,50.0,29.77,SE,146,0.0,1.0,97,0.00,,,1.23,,2013-09-10 11:22:00,
2013-09-10 05:42:00,51.0,50.0,29.77,SE,133,0.0,0.0,97,0.00,,,1.23,,2013-09-10 11:42:00,
2013-09-10 05:52:00,51.0,50.0,29.77,SE,132,0.0,1.0,97,0.00,,,1.23,,2013-09-10 11:52:00,
2013-09-10 06:12:00,52.0,51.0,29.77,SE,133,0.0,0.0,97,0.00,,,1.23,,2013-09-10 12:12:00,
2013-09-10 06:22:00,51.0,50.0,29.78,SE,133,0.0,0.0,97,0.00,,,1.23,,2013-09-10 12:22:00,
2013-09-10 06:42:00,51.0,50.0,29.78,SE,133,0.0,0.0,97,0.00,,,1.23,,2013-09-10 12:42:00,
2013-09-10 06:52:00,51.0,50.0,29.78,SE,132,0.0,0.0,97,0.00,,,1.23,,2013-09-10 12:52:00,
2013-09-10 07:11:00,51.0,50.0,29.78,SE,127,0.0,2.0,97,0.00,,,1.23,,2013-09-10 13:11:00,
2013-09-10 07:21:00,51.0,50.0,29.79,SE,139,0.0,3.0,97,0.00,,,1.23,,2013-09-10 13:21:00,
2013-09-10 07:42:00,51.0,50.0,29.79,SE,142,0.0,5.0,97,0.00,,,1.23,,2013-09-10 13:42:00,
2013-09-10 07:52:00,52.0,51.0,29.80,SE,141,0.0,0.0,97,0.00,,,1.23,,2013-09-10 13:52:00,
2013-09-10 08:11:00,52.0,51.0,29.80,ESE,117,2.0,5.0,97,0.00,,,1.23,,2013-09-10 14:11:00,
2013-09-10 08:21:00,52.0,51.0,29.81,SE,127,1.0,4.0,97,0.00,,,1.23,,2013-09-10 14:21:00,
2013-09-10 08:42:00,52.0,51.0,29.82,SE,146,1.0,3.0,97,0.00,,,1.23,,2013-09-10 14:42:00,
2013-09-10 08:52:00,52.0,51.0,29.82,SE,131,0.0,3.0,97,0.00,,,1.23,,2013-09-10 14:52:00,
2013-09-10 09:11:00,52.0,51.0,29.82,NE,40,0.0,3.0,97,0.00,,,1.23,,2013-09-10 15:11:00,
2013-09-10 09:22:00,51.0,50.0,29.83,NNE,32,0.0,4.0,97,0.03,,,1.26,,2013-09-10 15:22:00,
2013-09-10 09:43:00,51.0,50.0,29.83,ENE,58,2.0,5.0,97,0.07,,,1.30,,2013-09-10 15:43:00,
2013-09-10 09:54:00,51.0,50.0,29.83,ENE,57,0.0,2.0,97,0.17,,,1.40,,2013-09-10 15:54:00,
2013-09-10 10:13:00,51.0,50.0,29.84,ESE,117,0.0,3.0,97,0.21,,,1.44,,2013-09-10 16:13:00,
2013-09-10 10:23:00,52.0,51.0,29.85,NNE,20,0.0,2.0,97,0.18,,,1.44,,2013-09-10 16:23:00,
2013-09-10 10:43:00,52.0,51.0,29.86,ESE,110,0.0,5.0,97,0.15,,,1.45,,2013-09-10 16:43:00,
2013-09-10 10:53:00,52.0,51.0,29.86,ESE,123,0.0,2.0,97,0.06,,,1.47,,2013-09-10 16:53:00,
2013-09-10 11:12:00,52.0,51.0,29.85,East,84,0.0,1.0,97,0.04,,,1.48,,2013-09-10 17:12:00,
2013-09-10 11:23:00,52.0,51.0,29.86,NE,56,0.0,2.0,97,0.04,,,1.48,,2013-09-10 17:23:00,
2013-09-10 11:53:00,52.0,51.0,29.87,ESE,105,0.0,1.0,97,0.03,,,1.50,,2013-09-10 17:53:00,
2013-09-10 12:12:00,52.0,51.0,29.87,SE,127,0.0,2.0,96,0.02,,,1.50,,2013-09-10 18:12:00,
2013-09-10 12:22:00,52.0,51.0,29.86,SE,131,2.0,4.0,96,0.04,,,1.52,,2013-09-10 18:22:00,
2013-09-10 12:43:00,53.0,52.0,29.87,SE,142,1.0,3.0,96,0.04,,,1.53,,2013-09-10 18:43:00,
2013-09-10 12:52:00,52.0,51.0,29.87,ESE,103,1.0,5.0,96,0.03,,,1.53,,2013-09-10 18:52:00,
2013-09-10 13:11:00,53.0,52.0,29.86,ESE,117,0.0,3.0,97,0.03,,,1.53,,2013-09-10 19:11:00,
2013-09-10 13:22:00,53.0,52.0,29.87,SSE,157,0.0,3.0,96,0.01,,,1.53,,2013-09-10 19:22:00,
2013-09-10 13:42:00,52.0,51.0,29.87,SE,134,2.0,6.0,96,0.00,,,1.53,,2013-09-10 19:42:00,
2013-09-10 13:52:00,52.0,51.0,29.88,SE,142,3.0,5.0,96,0.00,,,1.53,,2013-09-10 19:52:00,
2013-09-10 14:12:00,52.0,51.0,29.88,ESE,122,1.0,6.0,96,0.00,,,1.53,,2013-09-10 20:12:00,
2013-09-10 14:21:00,53.0,52.0,29.87,East,93,1.0,5.0,96,0.00,,,1.53,,2013-09-10 20:21:00,
2013-09-10 14:42:00,53.0,52.0,29.87,ESE,104,1.0,7.0,96,0.00,,,1.53,,2013-09-10 20:42:00,
2013-09-10 14:52:00,54.0,53.0,29.86,NE,43,0.0,3.0,97,0.00,,,1.53,,2013-09-10 20:52:00,
2013-09-10 15:11:00,56.0,54.0,29.86,SE,126,2.0,7.0,93,0.00,,,1.53,,2013-09-10 21:11:00,
2013-09-10 15:23:00,57.0,54.0,29.85,SE,127,0.0,4.0,90,0.00,,,1.53,,2013-09-10 21:23:00,
2013-09-10 15:44:00,59.0,54.0,29.86,ENE,78,1.0,4.0,85,0.00,,,1.53,,2013-09-10 21:44:00,
2013-09-10 15:54:00,58.0,54.0,29.86,SE,132,0.0,5.0,88,0.00,,,1.53,,2013-09-10 21:54:00,
2013-09-10 16:14:00,57.0,53.0,29.86,ESE,102,2.0,5.0,87,0.00,,,1.53,,2013-09-10 22:14:00,
2013-09-10 16:24:00,56.0,53.0,29.85,East,88,0.0,6.0,91,0.00,,,1.52,,2013-09-10 22:24:00,
2013-09-10 16:42:00,57.0,54.0,29.85,ESE,108,0.0,5.0,90,0.00,,,1.52,,2013-09-10 22:42:00,
2013-09-10 16:54:00,55.0,52.0,29.86,SSE,163,2.0,7.0,90,0.00,,,1.52,,2013-09-10 22:54:00,
2013-09-10 17:13:00,55.0,53.0,29.86,ESE,110,1.0,6.0,92,0.00,,,1.52,,2013-09-10 23:13:00,
2013-09-10 17:23:00,54.0,52.0,29.87,SE,138,0.0,3.0,94,0.00,,,1.52,,2013-09-10 23:23:00,
2013-09-10 17:42:00,54.0,52.0,29.88,SSE,149,0.0,1.0,94,0.00,,,1.52,,2013-09-10 23:42:00,
2013-09-10 17:53:00,55.0,53.0,29.88,ESE,111,0.0,1.0,93,0.00,,,1.52,,2013-09-10 23:53:00,
2013-09-10 18:11:00,55.0,53.0,29.88,SE,143,0.0,1.0,92,0.00,,,1.52,,2013-09-11 00:11:00,
2013-09-10 18:22:00,55.0,53.0,29.89,SE,129,0.0,0.0,93,0.00,,,1.02,,2013-09-11 00:22:00,
2013-09-10 18:42:00,55.0,53.0,29.89,ESE,120,0.0,1.0,93,0.00,,,1.02,,2013-09-11 00:42:00,
2013-09-10 18:52:00,54.0,52.0,29.90,NNW,335,0.0,4.0,94,0.01,,,1.03,,2013-09-11 00:52:00,
2013-09-10 19:11:00,54.0,53.0,29.91,ENE,61,0.0,1.0,95,0.01,,,1.03,,2013-09-11 01:11:00,
2013-09-10 19:21:00,53.0,52.0,29.91,ENE,61,0.0,2.0,95,0.02,,,1.02,,2013-09-11 01:21:00,
2013-09-10 19:42:00,53.0,52.0,29.91,NE,35,0.0,2.0,96,0.07,,,1.07,,2013-09-11 01:42:00,
2013-09-10 19:53:00,53.0,52.0,29.92,NNE,26,1.0,4.0,96,0.06,,,1.07,,2013-09-11 01:53:00,
2013-09-10 20:11:00,53.0,52.0,29.93,NNE,19,0.0,1.0,96,0.08,,,1.09,,2013-09-11 02:11:00,
2013-09-10 20:22:00,53.0,52.0,29.93,NNE,22,0.0,2.0,96,0.08,,,0.79,,2013-09-11 02:22:00,
2013-09-10 20:43:00,53.0,52.0,29.94,ENE,68,0.0,2.0,96,0.06,,,0.81,,2013-09-11 02:43:00,
2013-09-10 20:52:00,53.0,52.0,29.94,NE,49,0.0,2.0,96,0.07,,,0.82,,2013-09-11 02:52:00,
2013-09-10 21:12:00,53.0,52.0,29.95,SE,134,0.0,6.0,96,0.06,,,0.83,,2013-09-11 03:12:00,
2013-09-10 21:22:00,52.0,51.0,29.95,SE,124,0.0,3.0,96,0.04,,,0.81,,2013-09-11 03:22:00,
2013-09-10 21:44:00,52.0,51.0,29.96,SSE,153,0.0,3.0,96,0.05,,,0.84,,2013-09-11 03:44:00,
2013-09-10 21:55:00,52.0,51.0,29.96,NE,53,0.0,2.0,96,0.05,,,0.86,,2013-09-11 03:55:00,
2013-09-10 22:14:00,52.0,51.0,29.96,ESE,105,0.0,2.0,96,0.05,,,0.86,,2013-09-11 04:14:00,
2013-09-10 22:24:00,52.0,51.0,29.96,NNE,15,0.0,0.0,96,0.05,,,0.76,,2013-09-11 04:24:00,
2013-09-10 22:43:00,52.0,51.0,29.96,SE,139,0.0,1.0,96,0.01,,,0.76,,2013-09-11 04:43:00,
2013-09-10 22:54:00,52.0,51.0,29.96,SE,143,0.0,1.0,96,0.01,,,0.77,,2013-09-11 04:54:00,
2013-09-10 23:13:00,52.0,51.0,29.96,SE,138,0.0,2.0,96,0.01,,,0.77,,2013-09-11 05:13:00,
2013-09-10 23:23:00,52.0,51.0,29.95,East,95,0.0,1.0,96,0.01,,,0.56,,2013-09-11 05:23:00,
2013-09-10 23:42:00,52.0,51.0,29.95,SE,129,0.0,1.0,96,0.02,,,0.57,,2013-09-11 05:42:00,
2013-09-10 23:53:00,52.0,51.0,29.95,SE,142,0.0,0.0,96,0.03,,,0.60,,2013-09-11 05:53:00,